Location: Joplin
(37.0842°N, 94.5131°W)
Time: 18:07:30
(UTC-05:00)

Envisat - Visible Passes

Search period start: 28 September 2021 00:00
Search period end: 08 October 2021 00:00
Orbit: 764 x 766 km, 98.2° (Epoch: 28 September)

Date Brightness Start Highest point End Pass type
(mag) Time Alt. Az. Time Alt. Az. Time Alt. Az.
28 Sep 5.4 05:31:36 10° NE 05:35:38 23° E 05:39:38 10° SSE visible
29 Sep 3.0 06:32:53 10° N 06:37:59 83° WNW 06:43:03 10° SSW visible
30 Sep 4.3 05:56:18 10° NNE 06:01:06 42° E 06:05:53 10° S visible
01 Oct 5.8 05:20:35 10° NE 05:24:01 18° E 05:27:27 10° SE visible
02 Oct 3.2 06:21:23 10° NNE 06:26:29 77° ESE 06:31:32 10° S visible
03 Oct 4.8 05:44:59 10° NNE 05:49:33 32° E 05:54:04 10° SSE visible
04 Oct 6.0 05:09:50 10° ENE 05:12:24 14° E 05:14:58 10° ESE visible
04 Oct 3.1 06:46:46 10° N 06:51:46 59° WNW 06:56:44 10° SSW visible
05 Oct 3.6 06:09:56 10° NNE 06:14:57 59° E 06:19:57 10° S visible
06 Oct 5.3 05:33:47 10° NE 05:37:58 25° E 05:42:06 10° SSE visible
07 Oct 6.3 05:00:05 10° E 05:00:45 10° E 05:01:27 10° E visible
07 Oct 3.0 06:35:12 10° N 06:40:17 77° WNW 06:45:20 10° SSW visible
